OPS 4682 DEB, 19954

Orbit data source: Space-Track

OPS 4682 DEB, 19954 is space debris in LEO originally from a launch on Sat, 03 Apr 1965 UTC launched from the Air Force Western Test Range (AFWTR). Debris objects in space refer to the collection of defunct objects orbiting the Earth. Examples of debris include non-operational satellites, rocket bodies, and fragments generated from explosions, collisions, or faulty payload assembly.

Loading next visibility...
Identifier
19954, 1965-027AZ
Orbit
LEO
Country
Flag of USUS
Related business
Manufacturer
Unknown
Mission
Spacecraft
Bus & Motor
Unknown
Mass
Unknown
Launch date (UTC)
1965-04-03 (61 years ago)
Launch vehicle
Unknown
Launch site
Air Force Western Test Range (AFWTR)
Object type
Payload
Rocket body
Debris
Shape & HBR
Unknown shape, 0.1 m
Radar Cross Section
Medium (>0.1 m² and <1 m²)

Expand to show TLE details & history
Last TLE update: 1 day ago

TLE from 1 day ago
0 OPS 4682 DEB
1 19954U 65027AZ  26207.11578206  .00000714  00000-0  21713-2 0  9993
2 19954  90.3923  80.3730 0033941  41.9677 111.0840 13.05290052780626
Epoch: 2026-07-26T02:46Z
TLE epoch observation values (Epoch: 2026-07-26T02:46:43.569Z)
Latitude
26.61757°
Longitude
-84.93126°
Altitude
1,254.06 km
Speed
7.226 km/s
True Right ascension
17h 22m 16s
True Declination
26° 29' 20"
Sunlit
Object was in daylight at epoch
Visualization orbit readout
Latitude
Unknown
Longitude
Unknown
Altitude
Unknown
Speed
Unknown
Apparent Right ascension
Unknown
Apparent Declination
Unknown
Sunlit
N/A
Visualization observer readout
Local Sidereal Time
20:28:44
Azimuth
Unknown
Elevation
Unknown
Doppler factor
Unknown
Orbital elements
Apogee altitude
1,264.401 km
Perigee altitude
1,212.697 km
Semi-major axis
7,616.686 km
Eccentricity
0.00339
Inclination
90.3923°
RAAN
80.373°
Arg. of periapsis
41.9677°
True anomaly
111.44634°
Mean anomaly
111.084°
Eccentric anomaly
111.26523°
Mean motion
3.26508 °/min
Orbital period
110.26 mins
BSTAR
0.0021713
Loading maneuver chart data...
Computing Atmospheric mass density...
Loading historical data...
Loading historical data...
Loading historical data...
Loading historical data...
Loading historical data...
Loading historical data...
Loading historical data...

Documentation

Showing up to 5 results
|